Weather History for Luqa, Malta

Change the Weather History Date:

Tuesday, January 22, 2013

  Actual Average Record
Temperature  
Mean Temperature 56 °F -  
Max Temperature 60 °F 60 °F 64 °F (2007)
Min Temperature 51 °F 49 °F 44 °F (2004)
Degree Days  
Heating Degree Days 10    
Growing Degree Days 6 (Base 50)    
Moisture  
Dew Point 46 °F    
Average Humidity 67    
Maximum Humidity 82    
Minimum Humidity 45    
Precipitation  
Precipitation 0.02 in 0.09 in - ()
Sea Level Pressure  
Sea Level Pressure 29.88 in    
Wind  
Wind Speed 14 mph ()    
Max Wind Speed 23 mph    
Max Gust Speed 34 mph    
Visibility 6.5 miles    
Events Rain    
Averages and records for this station are not official NWS values.
T = Trace of Precipitation, MM = Missing Value Source: Averaged Metar Reports

Daily Weather History Graph

Daily Weather History Graph

Search for Another Location

Airport:

Trip Planner

Search our weather history database for the weather conditions in past years. The results will help you decide how hot, cold, wet, or windy it might be!

Date:

Astronomy

Jan. 22, 2013 Rise Set
Actual Time 7:08 AM CET 5:18 PM CET
Civil Twilight 6:41 AM CET 5:46 PM CET
Nautical Twilight 6:10 AM CET 6:17 PM CET
Astronomical Twilight 5:39 AM CET 6:47 PM CET
Moon 1:30 PM CET (1/22) 3:14 AM CET (1/22)
Length of Visible Light 11h 04m
Length of Day
10h 09m
Waxing Gibbous, 80% of the Moon is Illuminated
Jan 22
Waxing Gibbous
Jan 27
Full
Feb 3
Last Quarter
Feb 10
New
Feb 17
First Quarter

Hourly Weather History & Observations

Time (CET) Temp. Dew Point Humidity Pressure Visibility Wind Dir Wind Speed Gust Speed Precip Events Conditions
12:15 AM 57.2 °F 48.2 °F 72% 29.77 in - WSW 17.3 mph 28.8 mph N/A   Clear
12:45 AM 59.0 °F 48.2 °F 67% 29.77 in 6.2 mi West 17.3 mph - N/A   Mostly Cloudy
1:00 AM 58 °F 49 °F 63% 29.78 in 9 mi West 15.0 mph - -   Partly Cloudy
1:15 AM 59.0 °F 48.2 °F 67% 29.77 in - West 16.1 mph - N/A   Clear
1:30 AM 59.0 °F 50.0 °F 72% 29.77 in 6.2 mi West 15.0 mph - N/A Rain Heavy Rain
1:31 AM 59.0 °F 50.0 °F 72% 29.77 in - West 15.0 mph - N/A   Clear
1:45 AM 59.0 °F 50.0 °F 72% 29.77 in - West 15.0 mph - N/A   Clear
2:15 AM 57.2 °F 48.2 °F 72% 29.77 in - WNW 19.6 mph - N/A   Clear
2:45 AM 57.2 °F 48.2 °F 72% 29.77 in - WNW 20.7 mph - N/A   Clear
3:15 AM 57.2 °F 48.2 °F 72% 29.77 in 6.2 mi WNW 19.6 mph - N/A   Scattered Clouds
3:45 AM 57.2 °F 46.4 °F 67% 29.77 in 6.2 mi WNW 21.9 mph - N/A   Partly Cloudy
4:00 AM 56 °F 45 °F 56% 29.80 in 7 mi NW 23.0 mph - -   Partly Cloudy
4:15 AM 55.4 °F 44.6 °F 67% 29.80 in 6.2 mi WNW 19.6 mph 33.4 mph N/A   Mostly Cloudy
4:45 AM 55.4 °F 42.8 °F 63% 29.80 in 6.2 mi WNW 21.9 mph 34.5 mph N/A   Partly Cloudy
5:15 AM 55.4 °F 44.6 °F 67% 29.80 in 6.2 mi WNW 20.7 mph - N/A   Partly Cloudy
5:45 AM 55.4 °F 44.6 °F 67% 29.80 in 6.2 mi WNW 18.4 mph - N/A   Partly Cloudy
6:15 AM 55.4 °F 46.4 °F 72% 29.83 in 6.2 mi WNW 13.8 mph - N/A   Scattered Clouds
6:45 AM 55.4 °F 46.4 °F 72% 29.83 in 6.2 mi WNW 17.3 mph - N/A   Partly Cloudy
7:00 AM 55 °F 47 °F 66% 29.84 in 7 mi WNW 20.7 mph - -   Partly Cloudy
7:15 AM 55.4 °F 46.4 °F 72% 29.83 in 6.2 mi WNW 17.3 mph - N/A   Mostly Cloudy
7:45 AM 53.6 °F 48.2 °F 82% 29.86 in 5.0 mi NW 17.3 mph 29.9 mph N/A Rain Light Rain
8:15 AM 55.4 °F 48.2 °F 77% 29.86 in 6.2 mi WNW 19.6 mph - N/A   Scattered Clouds
8:45 AM 55.4 °F 50.0 °F 82% 29.86 in 6.2 mi WNW 17.3 mph - N/A   Scattered Clouds
9:15 AM 57.2 °F 50.0 °F 77% 29.89 in 6.2 mi NW 18.4 mph - N/A   Scattered Clouds
9:45 AM 57.2 °F 48.2 °F 72% 29.89 in 6.2 mi NW 15.0 mph - N/A   Scattered Clouds
10:00 AM 58 °F 48 °F 62% 29.91 in 7 mi NW 17.3 mph - - Rain Light Rain Showers
10:15 AM 59.0 °F 48.2 °F 67% 29.89 in 6.2 mi NW 16.1 mph - N/A   Scattered Clouds
10:45 AM 59.0 °F 48.2 °F 67% 29.92 in 6.2 mi WNW 17.3 mph - N/A   Scattered Clouds
11:15 AM 59.0 °F 46.4 °F 63% 29.92 in 6.2 mi NW 17.3 mph - N/A   Scattered Clouds
11:45 AM 59.0 °F 46.4 °F 63% 29.92 in 6.2 mi NW 19.6 mph - N/A   Scattered Clouds
12:15 PM 59.0 °F 46.4 °F 63% 29.92 in 6.2 mi NW 20.7 mph - N/A   Scattered Clouds
12:45 PM 59.0 °F 44.6 °F 59% 29.92 in 6.2 mi NW 17.3 mph - N/A   Scattered Clouds
1:00 PM 59 °F 43 °F 45% 29.91 in 9 mi WNW 17.3 mph - -   Partly Cloudy
1:15 PM 59.0 °F 44.6 °F 59% 29.89 in 6.2 mi NW 17.3 mph - N/A   Scattered Clouds
1:45 PM 59.0 °F 44.6 °F 59% 29.89 in 6.2 mi WNW 17.3 mph - N/A   Scattered Clouds
2:15 PM 59.0 °F 42.8 °F 55% 29.89 in 6.2 mi NW 15.0 mph - N/A   Scattered Clouds
2:45 PM 59.0 °F 42.8 °F 55% 29.89 in 6.2 mi WNW 15.0 mph - N/A   Scattered Clouds
3:15 PM 59.0 °F 46.4 °F 63% 29.92 in 6.2 mi WNW 15.0 mph - N/A   Scattered Clouds
3:45 PM 59.0 °F 44.6 °F 59% 29.92 in 6.2 mi WNW 11.5 mph - N/A   Scattered Clouds
4:00 PM 57 °F 45 °F 54% 29.93 in 9 mi WNW 12.7 mph - -   Partly Cloudy
4:15 PM 57.2 °F 44.6 °F 63% 29.92 in 6.2 mi WNW 13.8 mph - N/A   Scattered Clouds
4:45 PM 55.4 °F 42.8 °F 63% 29.92 in 6.2 mi WNW 11.5 mph - N/A   Scattered Clouds
5:15 PM 55.4 °F 44.6 °F 67% 29.92 in 6.2 mi WNW 11.5 mph - N/A   Partly Cloudy
5:45 PM 53.6 °F 42.8 °F 67% 29.92 in 6.2 mi WNW 8.1 mph - N/A   Partly Cloudy
6:15 PM 53.6 °F 42.8 °F 67% 29.95 in 6.2 mi WNW 5.8 mph - N/A   Partly Cloudy
6:45 PM 53.6 °F 44.6 °F 72% 29.95 in 6.2 mi WNW 5.8 mph - N/A   Partly Cloudy
7:00 PM 53 °F 45 °F 65% 29.97 in 9 mi WNW 6.9 mph - -   Scattered Clouds
7:15 PM 53.6 °F 44.6 °F 72% 29.98 in 6.2 mi WNW 6.9 mph - N/A   Partly Cloudy
7:45 PM 53.6 °F 44.6 °F 72% 29.98 in 6.2 mi WNW 6.9 mph - N/A   Partly Cloudy
8:15 PM 53.6 °F 44.6 °F 72% 29.98 in 6.2 mi WNW 8.1 mph - N/A   Partly Cloudy
8:45 PM 53.6 °F 44.6 °F 72% 29.98 in 6.2 mi WNW 6.9 mph - N/A   Partly Cloudy
9:15 PM 51.8 °F 44.6 °F 76% 29.98 in 6.2 mi West 5.8 mph - N/A   Partly Cloudy
9:45 PM 51.8 °F 42.8 °F 71% 29.98 in - West 5.8 mph - N/A   Clear
10:00 PM 52 °F 43 °F 64% 29.99 in 9 mi West 4.6 mph - -   Scattered Clouds
10:15 PM 51.8 °F 42.8 °F 71% 29.98 in - West 4.6 mph - N/A   Clear
10:45 PM 51.8 °F 42.8 °F 71% 29.98 in - WSW 4.6 mph - N/A   Clear
11:15 PM 51.8 °F 44.6 °F 76% 29.98 in - WSW 5.8 mph - N/A   Clear
11:45 PM 51.8 °F 44.6 °F 76% 29.98 in - WSW 5.8 mph - N/A   Clear